• In Netherlands
  • List of Countries
  • For 7 days
  • Water Temperature
  • Satellite Maps
  • Weather Map
  • Weather Widgets
  • user-avatar
    Login

    Hourly Weather Borovec

    Today, 22 September, Friday

    Time Temperature Precipitation Wind Pressure Humidity
    00:00 +9°C° 0 mm 2 mps 710 mmHg 78%
    01:00 +8°C° 0 mm 2 mps 710 mmHg 80%
    02:00 +8°C° 0 mm 2 mps 711 mmHg 81%
    03:00 +7°C° 0 mm 2 mps 711 mmHg 81%
    04:00 +7°C° 0 mm 2 mps 711 mmHg 81%
    05:00 +7°C° 0 mm 2 mps 711 mmHg 81%
    06:00 +8°C° 0 mm 2 mps 711 mmHg 76%
    07:00 +9°C° 0 mm 3 mps 711 mmHg 71%
    08:00 +10°C° 0 mm 3 mps 711 mmHg 66%
    09:00 +11°C° 0 mm 3 mps 711 mmHg 63%
    10:00 +12°C° 0 mm 4 mps 711 mmHg 59%
    11:00 +13°C° 0 mm 4 mps 711 mmHg 56%
    12:00 +13°C° 0 mm 4 mps 711 mmHg 56%
    13:00 +14°C° 0 mm 4 mps 711 mmHg 56%
    14:00 +14°C° 0 mm 4 mps 711 mmHg 56%
    15:00 +13°C° 0 mm 4 mps 711 mmHg 58%
    16:00 +13°C° 0 mm 4 mps 711 mmHg 61%
    17:00 +12°C° 0 mm 4 mps 711 mmHg 63%
    18:00 +11°C° 0 mm 3 mps 712 mmHg 69%
    19:00 +10°C° 0 mm 2 mps 712 mmHg 74%
    20:00 +9°C° 0 mm 2 mps 712 mmHg 80%
    21:00 +9°C° 0 mm 2 mps 712 mmHg 82%
    22:00 +9°C° 0 mm 2 mps 713 mmHg 84%
    23:00 +8°C° 0 mm 2 mps 713 mmHg 86%

    Tomorrow, 23 September, Saturday

    Time Temperature Precipitation Wind Pressure Humidity
    00:00 +8°C° 0 mm 2 mps 713 mmHg 86%
    01:00 +8°C° 0 mm 2 mps 713 mmHg 87%
    02:00 +8°C° 0 mm 2 mps 713 mmHg 88%
    03:00 +8°C° 0 mm 2 mps 713 mmHg 89%
    04:00 +8°C° 0 mm 2 mps 713 mmHg 90%
    05:00 +7°C° 0 mm 2 mps 713 mmHg 90%
    06:00 +9°C° 0 mm 2 mps 713 mmHg 85%
    07:00 +10°C° 0 mm 2 mps 714 mmHg 80%
    08:00 +12°C° 0 mm 2 mps 714 mmHg 74%
    09:00 +14°C° 0 mm 2 mps 714 mmHg 65%
    10:00 +16°C° 0 mm 2 mps 714 mmHg 55%
    11:00 +18°C° 0 mm 3 mps 714 mmHg 46%
    12:00 +19°C° 0 mm 3 mps 714 mmHg 43%
    13:00 +20°C° 0 mm 3 mps 714 mmHg 39%
    14:00 +21°C° 0 mm 3 mps 713 mmHg 36%
    15:00 +20°C° 0 mm 3 mps 713 mmHg 38%
    16:00 +20°C° 0 mm 3 mps 713 mmHg 40%
    17:00 +19°C° 0 mm 3 mps 713 mmHg 41%
    18:00 +17°C° 0 mm 2 mps 713 mmHg 49%
    19:00 +15°C° 0 mm 1 mps 713 mmHg 57%
    20:00 +13°C° 0 mm 1 mps 713 mmHg 65%
    21:00 +12°C° 0 mm 1 mps 713 mmHg 65%
    22:00 +12°C° 0 mm 1 mps 713 mmHg 66%
    23:00 +12°C° 0 mm 1 mps 713 mmHg 67%

    Day after tomorrow, 24 September, Sunday

    Time Temperature Precipitation Wind Pressure Humidity
    00:00 +12°C° 0 mm 1 mps 713 mmHg 67%
    01:00 +11°C° 0 mm 1 mps 713 mmHg 68%
    02:00 +11°C° 0 mm 1 mps 713 mmHg 68%
    03:00 +11°C° 0 mm 1 mps 713 mmHg 68%
    04:00 +11°C° 0 mm 1 mps 713 mmHg 68%
    05:00 +11°C° 0 mm 1 mps 713 mmHg 69%
    06:00 +12°C° 0 mm 1 mps 713 mmHg 63%
    07:00 +14°C° 0 mm 1 mps 713 mmHg 58%
    08:00 +15°C° 0 mm 1 mps 714 mmHg 53%
    09:00 +19°C° 0 mm 1 mps 714 mmHg 46%
    10:00 +21°C° 0 mm 1 mps 714 mmHg 40%
    11:00 +24°C° 0 mm 1 mps 714 mmHg 33%
    12:00 +25°C° 0 mm 1 mps 714 mmHg 31%
    13:00 +25°C° 0 mm 1 mps 714 mmHg 30%
    14:00 +26°C° 0 mm 1 mps 714 mmHg 28%
    15:00 +25°C° 0 mm 2 mps 713 mmHg 30%
    16:00 +24°C° 0 mm 2 mps 713 mmHg 33%
    17:00 +24°C° 0 mm 2 mps 713 mmHg 35%
    18:00 +20°C° 0 mm 2 mps 713 mmHg 41%
    19:00 +19°C° 0 mm 1 mps 713 mmHg 47%
    20:00 +16°C° 0 mm 1 mps 713 mmHg 53%
    21:00 +16°C° 0 mm 1 mps 713 mmHg 54%
    22:00 +15°C° 0 mm 1 mps 713 mmHg 56%
    23:00 +15°C° 0 mm 1 mps 713 mmHg 58%

    25 September, Monday

    Time Temperature Precipitation Wind Pressure Humidity
    00:00 +14°C° 0 mm 1 mps 713 mmHg 59%
    01:00 +14°C° 0 mm 1 mps 713 mmHg 60%
    02:00 +14°C° 0 mm 1 mps 713 mmHg 61%
    03:00 +14°C° 0 mm 1 mps 713 mmHg 62%
    04:00 +13°C° 0 mm 1 mps 713 mmHg 63%
    05:00 +13°C° 0 mm 1 mps 713 mmHg 63%
    06:00 +14°C° 0 mm 1 mps 713 mmHg 61%
    07:00 +15°C° 0 mm 1 mps 713 mmHg 58%
    08:00 +16°C° 0 mm 1 mps 714 mmHg 55%
    09:00 +19°C° 0 mm 1 mps 714 mmHg 50%
    10:00 +21°C° 0 mm 1 mps 714 mmHg 44%
    11:00 +23°C° 0 mm 2 mps 714 mmHg 38%
    12:00 +24°C° 0 mm 2 mps 714 mmHg 37%
    13:00 +24°C° 0 mm 2 mps 714 mmHg 35%
    14:00 +25°C° 0 mm 2 mps 713 mmHg 34%
    15:00 +24°C° 0.1 mm 2 mps 713 mmHg 36%
    16:00 +23°C° 0.1 mm 2 mps 713 mmHg 39%
    17:00 +23°C° 0.1 mm 2 mps 713 mmHg 42%
    18:00 +20°C° 0.1 mm 2 mps 713 mmHg 49%
    19:00 +19°C° 0.1 mm 1 mps 713 mmHg 57%
    20:00 +16°C° 0.1 mm 1 mps 713 mmHg 64%
    21:00 +15°C° 0 mm 1 mps 713 mmHg 67%
    22:00 +14°C° 0 mm 1 mps 713 mmHg 69%
    23:00 +14°C° 0 mm 1 mps 713 mmHg 71%

    26 September, Tuesday

    Time Temperature Precipitation Wind Pressure Humidity
    00:00 +13°C° 0 mm 1 mps 713 mmHg 73%
    01:00 +13°C° 0 mm 1 mps 713 mmHg 74%
    02:00 +13°C° 0 mm 1 mps 712 mmHg 75%
    03:00 +13°C° 0 mm 1 mps 712 mmHg 76%
    04:00 +12°C° 0 mm 1 mps 712 mmHg 76%
    05:00 +12°C° 0 mm 1 mps 712 mmHg 77%
    06:00 +13°C° 0 mm 1 mps 713 mmHg 72%
    07:00 +14°C° 0 mm 0 mps 713 mmHg 66%
    08:00 +15°C° 0 mm 0 mps 713 mmHg 61%
    09:00 +19°C° 0 mm 1 mps 713 mmHg 54%
    10:00 +21°C° 0 mm 1 mps 714 mmHg 47%
    11:00 +24°C° 0 mm 1 mps 714 mmHg 40%
    12:00 +24°C° 0 mm 2 mps 713 mmHg 39%
    13:00 +25°C° 0 mm 2 mps 713 mmHg 37%
    14:00 +25°C° 0 mm 2 mps 713 mmHg 36%
    15:00 +24°C° 0 mm 2 mps 713 mmHg 38%
    16:00 +24°C° 0 mm 2 mps 712 mmHg 40%
    17:00 +23°C° 0 mm 2 mps 712 mmHg 43%
    18:00 +20°C° 0 mm 2 mps 712 mmHg 51%
    19:00 +18°C° 0 mm 2 mps 713 mmHg 58%
    20:00 +16°C° 0 mm 1 mps 713 mmHg 66%
    21:00 +15°C° 0 mm 1 mps 713 mmHg 70%
    22:00 +14°C° 0 mm 1 mps 713 mmHg 73%
    23:00 +14°C° 0 mm 1 mps 713 mmHg 76%

    27 September, Wednesday

    Time Temperature Precipitation Wind Pressure Humidity
    00:00 +13°C° 0 mm 1 mps 713 mmHg 78%
    01:00 +13°C° 0 mm 1 mps 713 mmHg 80%
    02:00 +13°C° 0 mm 1 mps 713 mmHg 81%
    03:00 +13°C° 0 mm 1 mps 713 mmHg 82%
    04:00 +12°C° 0 mm 1 mps 713 mmHg 84%
    05:00 +12°C° 0 mm 1 mps 714 mmHg 85%
    06:00 +13°C° 0 mm 1 mps 714 mmHg 79%
    07:00 +14°C° 0 mm 1 mps 714 mmHg 74%
    08:00 +16°C° 0 mm 1 mps 715 mmHg 69%
    09:00 +19°C° 0 mm 1 mps 715 mmHg 61%
    10:00 +20°C° 0 mm 2 mps 715 mmHg 53%
    11:00 +21°C° 0 mm 2 mps 715 mmHg 45%
    12:00 +23°C° 0 mm 2 mps 715 mmHg 42%
    13:00 +22°C° 0 mm 3 mps 715 mmHg 39%
    14:00 +24°C° 0 mm 3 mps 715 mmHg 37%
    15:00 +22°C° 0.1 mm 3 mps 714 mmHg 37%
    16:00 +21°C° 0.1 mm 3 mps 714 mmHg 38%
    17:00 +21°C° 0.1 mm 3 mps 714 mmHg 39%
    18:00 +18°C° 0 mm 3 mps 714 mmHg 44%
    19:00 +16°C° 0 mm 2 mps 714 mmHg 49%
    20:00 +14°C° 0 mm 2 mps 715 mmHg 54%
    21:00 +13°C° 0 mm 1 mps 715 mmHg 57%
    22:00 +13°C° 0 mm 1 mps 715 mmHg 60%
    23:00 +12°C° 0 mm 1 mps 715 mmHg 63%
    Show more